CZ-6A DEB, 63394

Orbit data source: Space-Track

CZ-6A DEB, 63394 is space debris in LEO originally from a launch on Tue, 06 Aug 2024 UTC launched from the Taiyaun Space Center, China (TSC). Debris objects in space refer to the collection of defunct objects orbiting the Earth. Examples of debris include non-operational satellites, rocket bodies, and fragments generated from explosions, collisions, or faulty payload assembly.

Loading next visibility...
Identifier
63394, 2024-140ADR
Orbit
LEO
Country
Flag of CNCN / PRC
Related business
Manufacturer
SAST
Mission
Spacecraft
Bus & Motor
Unknown
Mass
Unknown
Launch date (UTC)
2024-08-06 (2 years ago)
Launch vehicle
Unknown
Launch site
Taiyaun Space Center, China (TSC)
Object type
Payload
Rocket body
Debris
Shape & HBR
Unknown shape, 0.1 m
Radar Cross Section
Medium (>0.1 m² and <1 m²)

Expand to show TLE details & history
Last TLE update: 1 day ago

TLE from 1 day ago
0 CZ-6A DEB
1 63394U 24140ADR 26170.71765511  .00001257  00000-0  61958-3 0  9992
2 63394  88.9464 270.8195 0074913 199.7402 160.0883 14.15505188 91031
Epoch: 2026-06-19T17:13Z
TLE epoch observation values (Epoch: 2026-06-19T17:13:25.401Z)
Latitude
-0.00007°
Longitude
104.52104°
Altitude
894.543 km
Speed
7.379 km/s
True Right ascension
18h 03m 16s
True Declination
0° 00' 00"
Sunlit
Object was in full shadow at epoch
Visualization orbit readout
Latitude
Unknown
Longitude
Unknown
Altitude
Unknown
Speed
Unknown
Apparent Right ascension
Unknown
Apparent Declination
Unknown
Sunlit
N/A
Visualization observer readout
Local Sidereal Time
07:24:36
Azimuth
Unknown
Elevation
Unknown
Doppler factor
Unknown
Orbital elements
Apogee altitude
891.607 km
Perigee altitude
783.497 km
Semi-major axis
7,215.689 km
Eccentricity
0.00749
Inclination
88.9464°
RAAN
270.8195°
Arg. of periapsis
199.7402°
True anomaly
160.37811°
Mean anomaly
160.0883°
Eccentric anomaly
160.23346°
Mean motion
3.541 °/min
Orbital period
101.67 mins
BSTAR
0.00061958
Loading maneuver chart data...
Computing Atmospheric mass density...
Loading historical data...
Loading historical data...
Loading historical data...
Loading historical data...
Loading historical data...
Loading historical data...
Loading historical data...

Documentation

Showing up to 5 results
|